RH
73 72 71 70 70 69 68 67 67 66 66 65 65 64 64 64 64 64 64 64 65 65 66 66 66 66 66 66 66 67 68 70 73 75 77 77 77 77 77 76 76 76 76 75 75 74 74 73 73 73 72 72 71 71 70 70 70 69 69 69 71 73 76 80 83 86 87 88 90 92 93 94 94 92 90 87 85 84 85 84 84 87 90 89 88 87
73 73 73 72 71 71 71 70 70 69 69 69 68 68 68 68 68 68 68 69 69 70 70 70 70 70 70 69 68 69 70 73 75 78 79 79 79 79 79 80 80 80 79 78 78 78 78 78 78 77 76 75 75 74 73 73 72 72 72 71 71 71 73 76 79 81 83 85 87 90 93 94 94 92 91 89 87 85 84 84 86 88 89 87 85 83
72 72 72 71 70 71 71 71 71 71 70 70 70 70 70 70 71 72 72 72 72 72 72 73 72 72 72 71 71 72 73 75 77 78 79 80 80 80 80 81 81 81 81 80 81 81 81 81 81 80 80 79 78 77 76 76 75 75 74 74 73 74 75 77 79 80 81 82 84 87 91 93 94 93 92 90 88 86 84 85 86 87 87 84 82 81
73 72 72 71 71 72 72 72 72 72 72 72 72 72 72 73 74 74 74 75 74 74 74 74 73 73 73 73 73 73 74 76 78 79 79 79 80 80 81 81 81 82 82 82 82 82 82 83 82 82 82 81 81 80 80 80 79 80 80 80 80 80 81 81 82 82 82 83 84 87 91 93 94 94 94 92 90 88 86 87 89 90 88 86 83 82
74 74 73 73 73 73 73 73 73 74 74 74 74 74 74 75 75 75 75 75 75 75 75 74 74 74 74 74 74 74 74 76 77 78 79 79 80 81 81 82 82 82 82 82 82 82 83 83 83 83 83 82 82 82 82 83 83 84 84 85 86 86 86 86 86 85 85 86 88 91 94 95 96 95 95 94 94 93 92 94 95 96 95 92 89 86
76 75 74 74 75 75 74 74 75 75 76 76 75 75 75 75 74 74 75 74 74 74 75 74 74 74 75 75 74 74 75 76 76 78 79 80 81 81 81 82 82 81 82 82 82 82 82 82 82 82 82 82 82 82 82 82 83 84 85 85 86 86 87 87 88 88 88 89 91 93 96 97 97 97 97 98 98 98 98 99 99 99 99 97 94 90
78 77 76 76 76 76 76 76 76 76 76 76 75 75 74 74 74 73 74 73 73 74 74 74 74 75 75 75 75 75 75 76 76 77 78 78 79 80 80 80 81 81 81 81 81 81 81 81 82 82 82 82 82 82 81 82 82 83 84 84 84 84 84 84 85 86 86 87 88 90 93 95 96 97 98 98 99 99 99 99 99 98 98 98 96 93
81 79 78 78 77 77 77 76 75 75 75 76 76 75 75 74 73 73 73 73 73 73 74 74 74 75 75 75 75 75 75 75 75 75 75 75 75 76 76 77 78 79 80 81 81 82 82 82 83 83 82 82 83 83 83 83 83 83 83 83 83 83 83 82 82 83 84 84 85 87 89 91 93 94 96 97 97 97 97 97 96 96 96 95 94 91
84 81 79 78 78 78 78 76 75 75 76 77 77 77 77 76 74 74 73 73 73 73 74 74 74 75 75 75 75 76 76 76 75 75 75 74 74 74 74 75 77 78 79 80 81 81 82 82 82 82 82 83 83 83 83 84 84 83 83 83 83 84 84 83 83 84 84 85 85 86 88 88 90 92 95 96 96 96 96 95 94 93 92 91 90 88
86 84 82 81 80 80 80 79 78 78 78 79 80 79 79 79 78 77 77 76 75 74 75 75 75 75 76 76 76 76 76 76 76 76 76 76 76 76 76 77 77 78 79 80 81 81 81 81 82 82 83 83 83 83 83 84 84 83 83 83 84 84 85 85 85 86 86 86 87 87 87 87 89 91 94 95 96 96 95 95 94 92 90 88 86 84
86 84 84 84 83 82 81 81 81 81 82 84 85 86 86 84 84 83 83 80 77 75 75 75 76 76 77 77 77 76 76 76 76 76 76 76 76 77 77 77 77 78 79 80 80 81 81 81 82 83 83 83 83 83 83 84 84 84 84 84 84 84 85 85 86 86 86 86 87 86 86 85 87 90 93 94 94 95 94 93 91 89 87 84 82 81
83 83 84 85 85 85 83 82 82 83 85 87 88 88 86 84 84 85 86 84 81 78 76 76 77 77 77 77 77 77 77 76 76 76 77 77 77 77 77 76 76 76 77 77 78 78 78 79 80 80 81 82 82 82 82 83 83 84 84 85 85 85 85 85 85 85 85 85 84 83 83 82 83 86 89 90 91 91 90 89 88 86 83 81 79 79
83 84 86 87 87 87 86 86 86 86 86 87 87 86 84 82 81 83 85 85 83 81 79 79 79 78 77 78 78 78 78 77 78 78 78 78 78 78 78 77 76 76 76 76 76 76 76 76 77 78 78 79 79 79 80 80 81 82 82 83 83 84 83 84 84 84 84 83 83 82 81 80 81 82 84 86 86 86 85 84 82 80 78 77 77 77
87 88 89 89 88 87 86 86 86 86 85 84 83 82 82 82 83 85 87 87 85 84 84 84 83 81 79 79 78 78 79 79 79 79 79 79 79 78 78 78 78 77 77 77 76 76 75 76 76 76 76 76 76 76 76 76 76 77 78 80 81 82 82 83 84 84 85 85 84 83 82 81 81 81 81 82 81 80 79 78 77 76 76 76 76 77
92 92 92 90 88 86 85 83 83 83 82 82 82 82 83 85 87 89 91 90 88 87 87 87 87 84 81 80 79 79 80 81 81 81 81 80 79 79 79 79 79 78 78 78 78 77 76 76 76 76 75 74 74 74 73 74 74 76 77 79 81 82 83 84 84 85 85 86 85 84 83 82 82 82 82 80 79 78 77 76 76 77 77 78 79 80
94 94 94 92 90 88 86 84 84 84 84 83 83 84 87 89 90 90 90 90 88 88 88 88 87 84 80 78 78 78 79 81 82 82 82 81 79 79 79 80 80 80 79 79 78 78 77 77 77 76 76 75 74 74 74 75 76 77 78 80 82 83 84 85 85 86 86 86 86 84 83 83 83 82 81 79 79 78 78 79 80 80 81 82 83 84
93 93 94 93 91 89 86 85 85 85 85 85 86 87 89 91 92 91 90 89 87 87 86 87 86 83 78 73 72 73 75 77 79 81 81 81 80 80 80 81 81 81 80 80 79 79 78 78 78 77 77 76 75 75 76 76 77 78 79 81 82 83 84 85 85 86 86 86 86 85 84 84 83 83 82 81 80 81 81 81 81 82 83 84 84 85
93 93 93 92 90 87 84 85 85 85 86 88 89 90 91 93 93 92 91 90 90 89 88 87 86 84 80 75 72 71 72 76 80 83 84 84 82 81 82 82 83 83 82 82 81 80 79 79 78 78 78 77 77 78 78 78 79 80 81 82 82 83 84 85 86 86 86 86 85 85 85 85 84 83 81 80 80 81 81 82 82 83 83 84 86 87
95 94 95 94 91 88 87 86 86 87 89 91 94 95 96 95 95 94 93 92 91 91 90 89 87 85 82 78 75 73 73 78 84 89 91 88 86 84 84 84 85 85 85 83 82 81 81 80 79 79 78 79 79 79 80 81 81 82 83 84 85 85 86 86 87 87 86 86 86 85 86 85 85 83 82 82 82 83 83 83 83 83 83 85 87 88
98 97 96 95 94 92 90 89 88 89 92 96 99 100 100 98 96 93 92 91 90 91 92 92 90 87 83 80 78 77 77 83 90 95 96 93 90 87 87 87 87 87 86 85 83 82 82 81 80 80 79 79 80 80 81 81 82 84 85 86 86 87 88 88 88 87 86 86 86 86 85 84 84 83 83 82 82 82 83 82 82 82 83 86 87 88
99 98 97 94 94 95 94 94 94 96 98 100 100 100 99 97 95 93 92 91 91 91 92 92 91 88 85 84 83 83 84 91 96 99 97 94 91 89 88 88 88 88 88 86 84 83 82 82 82 81 81 81 81 81 81 82 83 84 85 87 87 88 88 89 88 87 87 87 86 85 84 83 83 82 83 83 83 83 82 82 82 82 84 86 87 87
99 98 99 98 98 99 99 99 99 100 100 100 100 100 99 97 95 93 92 92 92 92 92 91 90 89 89 91 92 92 92 97 99 99 98 94 90 87 86 87 87 88 88 86 85 84 83 83 82 82 82 81 81 82 82 83 84 86 86 87 88 88 89 89 88 87 87 88 87 84 82 81 82 83 85 86 86 86 84 83 82 82 83 84 86 87
100 99 99 98 99 100 100 100 99 99 99 100 100 100 99 98 97 96 95 95 96 95 94 93 94 94 96 98 98 98 98 99 100 100 100 95 90 85 83 84 85 86 86 85 84 84 83 83 83 82 82 82 81 82 82 83 85 86 86 88 89 89 89 89 88 88 88 89 87 84 81 82 84 85 87 88 88 87 85 82 81 82 84 86 87 89
100 100 100 100 100 100 100 100 100 99 99 100 100 100 100 100 100 100 100 100 100 99 99 100 100 99 98 97 96 96 97 98 99 100 100 97 92 86 83 83 83 83 83 83 83 82 83 83 82 82 82 81 81 81 82 83 84 85 87 88 89 89 89 89 89 89 89 90 87 84 82 84 86 87 88 88 88 87 85 83 84 85 87 89 91 92
97 99 100 100 100 100 100 100 100 100 100 100 100 100 100 100 100 100 100 100 99 99 99 99 97 94 90 89 90 92 93 95 97 99 100 96 91 86 83 83 82 82 81 81 81 81 82 82 82 81 81 81 80 80 80 81 82 84 86 87 88 89 89 88 88 89 89 88 86 83 83 85 86 87 88 89 89 88 87 86 86 87 88 89 91 91
93 97 100 100 100 100 100 100 100 100 99 99 99 99 99 98 98 98 97 95 94 94 96 94 91 87 85 86 88 89 88 89 93 96 99 95 90 85 81 81 81 81 82 81 81 82 82 82 82 82 81 80 80 79 79 80 81 82 84 86 87 88 88 88 88 88 89 87 85 83 83 84 85 86 88 89 90 90 89 88 87 87 88 88 89 89
90 95 99 100 100 100 100 100 100 99 96 93 92 92 91 91 91 91 89 86 86 88 92 91 89 87 85 85 86 86 85 85 88 92 95 96 93 88 82 80 81 83 85 84 84 84 84 85 84 83 82 81 80 80 79 79 80 81 83 85 87 89 89 90 89 88 89 87 86 84 84 84 85 86 88 90 91 90 88 87 87 87 87 88 90 93
92 97 100 100 100 100 100 100 98 95 90 86 83 82 83 85 88 89 87 86 88 91 95 95 93 90 87 85 84 84 83 83 84 86 89 94 94 90 85 83 84 86 87 86 85 85 85 86 86 85 83 82 81 80 79 78 79 79 81 83 84 85 85 87 87 87 87 87 85 84 83 83 84 85 86 87 87 87 86 86 86 87 89 91 94 96
96 99 99 99 99 99 98 96 91 85 79 77 78 81 84 87 90 92 93 94 96 98 97 94 92 90 88 87 84 82 81 80 79 80 82 90 91 89 86 86 87 88 88 87 86 86 85 86 85 84 83 81 80 79 78 77 77 76 76 76 75 74 73 75 76 77 78 81 83 83 81 81 82 83 84 84 84 84 84 85 86 88 91 92 94 97
98 97 95 93 91 90 87 81 75 70 68 70 75 81 85 89 93 96 97 99 100 99 96 93 91 90 89 87 85 82 78 75 75 76 81 88 90 89 86 87 88 88 88 88 88 87 84 82 81 80 79 78 78 76 75 73 72 72 71 70 69 68 66 68 68 68 69 72 77 83 86 84 83 83 83 82 83 83 83 84 85 87 88 90 93 97
98 94 88 84 81 79 76 72 71 70 70 73 77 81 84 88 93 95 97 99 100 99 98 95 94 93 92 91 87 83 79 75 75 78 84 90 92 90 88 88 88 88 88 89 89 88 83 81 77 74 74 74 73 72 71 70 70 69 69 69 69 69 70 70 71 71 71 72 75 80 88 87 86 84 80 79 79 80 81 81 82 84 85 89 93 97
96 91 84 80 77 77 77 78 78 79 79 80 80 81 82 86 90 93 96 98 99 100 100 98 97 96 95 94 92 89 87 83 84 87 91 94 95 93 91 90 90 89 89 89 89 88 86 84 78 73 74 74 73 72 71 70 70 71 71 72 72 73 73 73 73 73 73 72 73 75 80 80 81 81 79 78 78 78 80 79 80 81 84 90 95 98
94 89 83 80 79 80 82 83 83 84 84 84 83 83 83 86 88 92 96 98 99 100 100 100 99 98 97 97 96 94 92 89 90 93 96 98 97 95 93 92 91 90 89 90 91 90 88 86 82 79 79 79 78 77 75 75 74 75 75 75 75 75 75 74 73 72 71 71 70 70 71 71 71 72 73 72 73 75 77 80 82 85 88 93 96 98
90 86 83 82 83 83 84 85 85 85 85 85 86 86 87 89 92 95 97 99 100 100 100 100 100 99 99 98 95 92 90 88 89 92 97 99 99 97 95 94 92 91 91 91 92 93 91 88 86 84 84 83 82 81 79 78 77 77 77 76 76 75 75 74 73 72 71 70 70 70 70 69 69 69 69 69 69 70 73 81 87 92 95 96 97 97
87 85 84 84 84 84 84 84 84 85 85 86 87 89 92 95 97 98 98 97 96 96 97 98 98 99 100 99 96 93 92 91 92 94 97 99 100 99 98 96 94 93 92 92 93 93 91 90 88 87 87 85 84 82 80 79 78 77 76 76 75 75 74 74 73 72 72 72 72 71 71 71 71 71 70 70 70 72 77 86 90 91 92 94 95 96
89 87 87 86 85 84 83 83 83 84 86 88 91 95 97 98 98 97 95 92 90 88 88 89 93 96 99 99 98 97 97 97 97 98 99 99 100 100 99 97 96 94 94 94 93 92 90 89 88 87 87 87 85 83 80 79 78 77 76 75 75 75 74 74 74 73 73 73 73 73 73 73 73 73 72 72 73 77 84 88 88 88 90 92 94 95
92 90 88 86 85 84 84 83 84 86 88 92 95 96 95 93 92 91 91 91 91 92 92 92 94 96 98 98 99 99 99 99 99 99 99 99 99 99 99 98 97 96 96 95 94 93 91 90 88 87 87 87 85 83 80 79 78 77 76 75 75 75 75 74 75 75 75 75 75 75 75 75 75 75 74 74 74 76 79 78 78 80 84 89 93 96
93 90 87 85 83 83 84 85 86 88 90 92 92 91 89 89 90 92 94 95 96 97 97 96 95 96 97 98 99 99 99 99 99 99 99 98 98 98 99 99 99 98 98 97 96 95 94 92 90 87 86 84 83 82 81 81 80 79 77 76 76 75 75 75 75 75 76 76 77 77 77 77 77 76 76 75 74 74 74 74 74 77 80 85 88 91
90 87 85 83 83 83 84 86 87 89 90 91 90 90 90 92 95 96 97 97 97 96 94 94 96 97 98 98 99 99 99 99 99 98 98 98 97 97 98 99 99 99 99 98 98 98 97 94 92 89 88 85 83 82 81 81 81 81 80 78 78 77 76 76 76 76 77 77 78 78 79 79 78 78 77 75 75 75 75 75 77 79 82 83 85 87
88 86 84 83 83 84 85 87 88 89 89 88 88 90 93 95 96 97 96 94 92 90 90 93 95 98 98 98 98 98 98 96 95 94 95 96 97 97 97 98 99 99 99 99 99 99 98 96 93 90 88 87 85 84 83 83 83 82 81 81 81 80 78 77 77 77 78 78 79 80 80 80 79 78 76 75 75 76 77 78 79 80 82 84 88 92
87 86 85 84 85 85 87 88 89 89 88 88 90 94 97 97 96 92 87 85 86 88 91 94 96 97 98 97 97 96 95 93 91 91 92 94 96 98 97 98 99 99 99 99 99 99 99 98 96 94 92 90 89 88 88 86 85 84 84 84 82 80 78 78 78 78 79 79 80 80 80 79 78 78 77 76 76 76 77 79 80 81 81 82 87 93
89 89 88 88 89 89 90 90 90 89 88 92 95 98 98 94 89 85 84 86 88 89 91 92 93 93 93 94 95 95 95 93 91 91 91 93 95 97 98 98 98 98 98 98 99 99 99 98 97 96 94 93 92 91 90 88 87 87 86 86 85 83 82 81 80 79 79 79 79 80 79 79 78 78 78 78 78 78 78 79 81 82 82 83 84 87
90 91 92 92 92 92 91 91 91 91 93 96 97 96 93 88 85 85 87 90 90 90 89 89 89 90 90 90 91 93 93 91 90 90 91 92 94 96 98 98 98 98 97 97 98 98 99 99 98 97 95 95 94 93 92 90 89 89 88 87 86 86 86 82 80 79 79 80 80 80 80 79 79 80 80 80 80 79 79 80 81 82 82 82 82 83
95 95 95 94 93 92 92 92 93 94 96 96 95 92 88 85 84 85 88 91 91 90 89 89 89 90 90 89 88 88 89 88 88 89 89 91 93 95 98 98 98 98 97 97 97 98 98 98 98 97 96 96 96 95 93 91 91 90 90 88 87 87 86 82 81 81 81 82 82 82 82 82 82 83 83 82 81 80 80 81 82 82 81 81 82 82
97 97 96 95 94 93 94 94 94 95 93 93 91 89 86 84 84 86 90 92 92 91 89 88 89 89 87 86 86 86 87 87 87 87 88 89 91 94 96 97 98 98 98 98 98 98 98 97 96 96 96 96 97 97 95 93 92 92 91 89 89 89 89 86 85 85 85 85 85 85 84 85 85 86 86 85 83 81 81 83 83 83 82 81 81 80
97 97 96 95 94 94 94 95 95 95 93 91 89 87 86 85 86 88 92 93 93 90 87 87 88 88 87 85 85 86 87 86 86 85 86 87 88 89 91 94 97 98 98 98 98 98 98 98 97 96 96 97 97 97 96 94 94 93 92 90 90 90 90 89 88 88 88 88 87 87 86 86 87 88 89 88 86 84 83 84 84 84 82 81 80 79
97 97 96 96 95 95 96 95 95 93 92 90 89 89 88 89 91 93 94 94 92 89 86 86 86 87 87 86 86 86 86 86 86 86 87 87 87 88 89 92 95 97 98 98 98 98 98 98 98 98 98 98 97 96 95 94 94 93 92 91 91 91 91 90 89 88 88 88 87 87 87 88 89 91 91 90 88 87 86 85 84 83 82 81 80 79
98 97 97 97 97 96 95 94 93 92 91 92 92 92 92 92 93 93 93 91 89 87 87 86 86 86 85 85 85 86 87 87 89 90 91 90 89 88 88 90 92 95 97 98 98 98 98 98 98 98 98 97 96 94 92 92 92 92 91 91 90 90 90 89 88 87 87 86 86 86 87 89 91 92 92 92 92 90 88 85 83 82 82 81 80 79
97 97 97 97 96 95 94 93 93 93 94 95 95 94 92 91 90 88 89 87 87 87 88 87 87 86 85 85 84 85 86 87 90 92 93 93 91 90 88 89 91 94 97 97 98 98 98 98 98 98 98 98 97 96 93 93 92 92 92 91 91 90 89 88 88 87 87 86 86 87 87 89 92 94 95 95 94 92 88 85 82 80 80 81 80 78
97 96 96 96 96 95 94 94 95 95 96 96 95 94 93 91 90 88 87 86 87 87 87 87 87 87 87 86 85 85 87 89 90 92 93 93 93 92 91 90 92 95 97 97 97 97 97 97 97 97 97 98 98 97 96 95 94 94 94 93 92 91 90 89 88 88 88 88 88 88 88 88 90 93 96 96 95 92 88 84 81 79 78 80 79 77
96 96 96 96 96 95 95 95 96 96 96 96 95 94 93 92 89 87 87 86 86 87 86 87 87 88 88 88 88 88 89 91 92 92 92 92 92 94 94 93 94 96 97 97 97 97 97 96 94 93 93 93 94 96 97 97 96 95 94 94 93 92 91 90 90 89 89 89 88 88 87 86 87 89 93 96 95 92 88 85 81 79 78 79 78 76
Wind_Speed
23 23 24 24 24 25 25 25 26 26 27 27 27 28 28 28 29 30 31 31 32 33 33 34 34 35 35 35 35 34 34 32 32 31 31 31 31 31 31 31 31 31 31 31 31 31 31 31 30 30 30 30 30 30 30 30 30 30 30 29 29 29 28 27 27 28 29 30 30 29 28 28 28 27 27 28 28 28 29 30 31 30 29 29 29 29
22 22 22 22 23 24 24 24 24 25 26 26 27 27 28 28 29 29 30 30 31 31 31 31 31 32 33 33 34 33 32 31 30 30 30 30 30 30 30 30 30 30 30 30 30 30 29 29 29 29 29 29 29 29 29 29 29 29 29 29 29 29 29 28 28 28 29 30 31 30 29 29 28 28 28 28 28 28 29 30 31 31 30 29 29 29
22 22 22 22 22 23 23 24 24 24 26 27 27 27 28 29 30 29 29 29 29 29 29 29 29 30 31 32 32 32 31 30 29 29 29 29 29 29 29 29 29 29 29 29 29 29 29 28 28 28 28 28 28 28 29 29 29 29 29 28 29 29 29 28 28 28 29 31 32 32 30 29 29 28 28 28 28 29 30 30 31 31 30 30 29 29
22 22 22 22 22 23 23 24 25 25 26 27 28 28 29 29 29 29 28 28 29 29 29 29 29 29 30 31 31 31 30 29 28 28 29 29 29 29 29 29 29 29 29 29 29 29 28 28 28 28 28 28 28 28 28 28 28 28 28 28 28 28 28 28 28 29 30 31 32 32 30 29 29 28 28 28 28 29 29 31 31 31 30 30 29 29
21 21 22 22 22 22 23 24 24 25 25 26 26 27 27 27 27 27 28 28 28 29 29 29 29 29 29 30 30 30 29 29 28 28 28 29 29 29 29 29 29 29 29 29 29 29 29 28 28 28 28 27 27 27 27 27 27 27 27 27 27 27 27 27 28 29 30 31 31 30 29 29 28 28 28 27 28 28 29 30 30 29 28 28 27 27
22 22 22 22 21 22 23 23 23 23 23 24 24 25 25 25 26 26 27 27 28 28 28 28 28 29 29 30 30 30 30 29 29 28 28 29 29 29 29 29 29 29 29 29 29 28 28 28 28 28 27 27 27 27 27 26 26 26 26 26 26 26 26 26 26 27 28 29 29 29 28 28 27 27 26 26 26 27 27 27 27 26 25 25 25 26
24 23 23 22 22 22 22 23 23 23 22 22 23 23 24 25 25 26 26 27 28 28 29 29 29 29 29 30 30 30 29 29 29 28 28 28 28 28 28 28 28 28 28 28 28 28 28 28 27 27 27 27 26 26 26 26 26 26 25 25 25 25 25 25 25 25 26 27 28 28 28 27 26 26 25 25 25 25 25 25 25 24 24 23 24 24
24 24 23 23 23 23 23 23 23 23 22 22 22 23 24 25 25 25 26 27 27 28 28 28 28 29 29 29 29 29 28 28 28 28 28 27 27 27 27 27 27 27 27 27 27 27 27 27 27 26 26 26 26 26 26 26 26 26 26 26 25 25 25 25 25 25 25 27 27 28 27 27 26 25 25 25 24 24 24 24 24 24 23 23 24 24
24 24 25 24 23 23 23 24 24 24 23 22 22 22 23 24 24 25 25 25 26 26 25 26 27 28 29 29 28 28 27 27 27 27 27 27 27 27 27 26 26 26 26 26 26 26 26 26 26 26 26 26 26 26 26 26 26 26 26 26 26 25 25 25 25 25 26 26 27 27 26 26 26 25 24 24 24 24 23 23 23 23 24 24 24 25
24 24 25 24 23 23 23 24 25 25 24 23 23 23 23 23 23 24 24 24 25 25 24 24 25 26 28 28 28 27 26 26 26 26 26 26 26 26 26 26 26 26 26 26 27 27 27 27 27 27 27 27 27 27 26 26 26 26 26 26 25 25 25 25 24 24 25 25 25 25 25 25 25 24 24 23 23 23 23 23 23 23 24 24 24 25
23 24 24 23 23 23 23 24 24 25 24 23 23 24 24 23 22 21 21 23 24 24 23 23 23 25 26 27 27 26 26 26 26 27 27 27 27 27 27 27 27 27 27 27 27 28 28 28 28 27 27 27 27 26 26 25 25 25 25 24 24 24 23 23 23 23 23 23 23 23 24 24 25 24 24 23 23 23 22 22 22 22 23 23 24 25
23 23 22 21 21 21 22 23 24 23 22 20 20 20 22 23 22 21 19 20 22 23 23 23 24 24 25 25 26 26 25 25 26 27 27 28 27 27 27 27 27 27 27 27 27 27 27 27 26 26 26 26 26 25 25 24 23 23 23 23 22 22 22 22 22 21 21 21 22 22 22 23 24 24 24 23 22 22 22 22 22 22 22 23 23 24
23 22 21 20 20 19 20 20 20 20 20 18 18 18 19 21 21 20 20 20 22 22 23 23 24 25 26 26 25 25 25 26 26 27 28 28 27 27 26 27 27 27 26 26 26 27 27 26 25 25 25 25 25 24 24 23 23 22 22 22 21 21 21 21 21 21 21 21 21 21 22 22 23 23 23 22 22 22 21 21 22 22 23 23 24 25
21 20 19 18 18 19 19 19 18 18 18 19 20 20 21 21 21 20 20 20 22 22 22 22 23 25 26 26 25 24 24 25 26 27 27 28 27 26 25 26 26 26 26 25 26 26 26 24 24 24 24 24 24 24 24 24 23 23 22 22 22 22 21 21 21 21 20 20 20 20 21 21 21 22 22 21 21 22 22 22 23 23 24 24 25 26
16 15 14 14 15 17 18 18 18 19 20 21 22 22 22 22 21 20 19 19 21 21 21 21 22 25 26 25 24 23 23 23 24 26 27 28 27 26 24 25 25 26 26 25 26 26 25 24 24 24 25 26 26 26 25 25 24 23 23 22 22 22 22 21 21 21 20 20 20 20 20 20 21 21 21 21 22 22 22 23 23 24 24 25 26 26
15 14 12 12 13 16 17 18 18 19 21 22 22 22 21 20 20 19 19 19 19 19 18 18 18 20 23 24 23 21 20 21 23 24 25 27 27 25 23 23 24 26 26 26 26 26 25 24 25 25 26 27 27 26 25 25 24 23 22 22 22 21 21 21 21 21 21 20 20 20 20 20 20 20 21 21 21 22 22 23 23 24 25 26 26 27
16 16 15 14 15 17 20 20 21 21 22 22 22 21 20 20 19 19 18 18 18 17 16 15 10 7 13 21 22 19 17 18 20 22 23 25 26 25 22 21 23 25 26 26 26 25 25 25 25 26 26 27 27 26 25 24 23 22 22 22 21 21 21 21 21 21 21 20 20 20 20 20 20 20 21 21 22 22 23 23 24 25 25 26 27 27
17 17 17 16 17 19 21 22 22 23 23 22 22 21 20 19 19 18 18 18 17 16 16 16 12 7 6 13 19 20 17 18 18 19 21 23 24 24 21 20 22 24 25 26 26 25 25 25 25 26 27 26 26 25 24 23 23 22 22 22 22 22 21 21 21 21 21 21 21 21 21 21 21 21 22 22 23 23 24 24 25 25 26 26 27 27
18 18 17 17 19 21 22 23 23 23 22 20 19 17 17 17 17 17 17 17 18 18 17 16 15 15 14 18 23 25 22 20 19 19 19 21 23 23 21 20 21 23 25 26 26 26 25 26 26 27 27 26 25 24 24 23 23 23 23 22 22 22 22 22 22 21 21 21 21 21 21 21 22 22 23 23 23 23 24 24 25 25 26 27 27 27
18 18 17 18 20 21 23 24 24 23 21 19 17 15 14 15 16 18 19 19 20 20 19 18 18 19 21 23 26 27 24 21 19 18 18 20 22 23 22 20 20 22 25 26 27 26 25 26 27 27 27 27 26 25 24 24 23 23 23 23 23 22 22 22 22 22 22 22 22 22 22 22 23 23 23 23 24 24 24 24 25 25 26 26 27 27
20 21 23 24 23 22 21 22 23 22 21 19 18 17 17 17 18 19 19 20 20 20 20 19 20 21 23 24 26 26 24 20 17 16 15 17 20 22 21 20 20 22 24 27 27 27 26 26 27 28 27 27 26 25 24 24 23 23 23 23 22 22 22 22 22 22 22 22 22 22 23 23 23 23 23 23 23 23 24 24 24 25 25 26 26 27
23 24 25 26 25 24 24 25 25 24 23 22 20 19 19 19 18 19 20 20 20 20 20 20 22 24 25 25 26 26 24 21 18 17 15 14 17 21 21 19 19 21 24 25 26 26 26 26 27 27 27 27 26 25 24 23 23 23 22 22 22 22 21 21 21 21 21 22 22 23 23 23 23 23 23 23 23 23 23 23 24 24 25 25 26 26
26 27 28 29 28 27 27 27 27 27 26 25 24 23 23 22 21 21 21 21 21 21 22 23 24 25 25 25 26 26 25 23 21 20 15 9 13 20 20 18 18 20 22 24 24 24 24 25 26 26 26 26 25 24 23 23 22 22 22 21 21 21 21 21 21 21 21 22 22 23 23 23 23 23 23 23 23 22 23 23 23 24 24 25 25 26
28 29 29 29 29 29 28 27 27 27 27 26 26 26 26 25 25 24 23 22 22 22 23 23 22 22 23 23 23 23 23 22 21 20 16 11 14 18 20 19 18 20 22 23 23 23 23 23 25 25 25 24 24 23 22 22 21 21 21 21 21 20 20 20 20 21 21 21 22 22 22 22 23 23 22 22 22 22 22 22 23 23 23 24 24 24
29 29 30 31 31 29 27 26 26 26 25 25 24 24 24 23 22 22 21 21 21 21 21 20 19 19 21 22 20 20 20 20 19 18 16 13 15 19 21 19 19 20 22 23 23 22 21 22 23 24 24 23 23 22 22 21 21 21 20 20 20 19 19 20 20 20 20 21 21 21 22 22 22 22 22 22 22 22 22 22 22 23 23 23 24 24
30 31 33 34 33 31 28 26 25 23 23 22 22 22 22 21 21 20 20 20 21 20 19 18 16 18 21 19 17 17 17 17 17 18 17 14 15 19 21 20 19 20 21 22 22 20 20 20 22 22 22 22 22 22 21 21 21 20 20 19 19 19 19 19 19 19 19 19 20 20 20 20 21 21 21 21 21 21 21 21 22 22 23 23 24 25
30 31 33 33 32 30 28 25 23 22 21 22 23 23 23 23 22 21 21 22 22 20 18 13 11 12 16 15 14 15 15 14 15 17 18 17 15 16 20 20 19 19 20 21 20 19 18 19 19 20 21 21 21 21 22 22 21 20 19 19 18 18 18 18 18 18 18 18 18 18 18 19 19 19 20 20 20 20 20 21 21 22 23 23 24 24
28 29 29 29 27 25 23 21 20 20 21 23 24 24 23 22 20 19 20 21 20 19 16 11 8 7 7 9 12 14 15 14 15 16 17 16 15 15 19 20 19 18 18 18 19 19 18 18 18 19 20 20 21 22 22 21 20 19 18 17 16 16 16 16 16 16 16 16 17 17 17 18 18 18 19 19 19 19 20 20 21 21 22 22 23 24
27 25 23 21 20 18 18 18 19 21 23 24 24 23 21 20 19 18 19 19 18 16 15 14 12 10 9 12 16 18 18 19 19 19 18 16 15 16 19 18 17 17 15 15 15 16 16 17 17 18 19 20 20 21 20 19 18 17 15 14 14 14 14 14 14 15 15 16 16 16 16 17 17 17 18 18 19 19 19 20 20 20 21 22 23 24
24 21 18 16 16 16 17 19 21 23 25 24 23 21 19 18 18 18 19 18 17 16 16 16 16 15 14 13 12 12 14 17 18 17 17 15 14 15 17 16 16 16 14 11 8 8 10 13 15 16 17 17 17 17 16 15 14 13 13 12 11 12 12 13 14 15 15 16 15 15 15 16 16 16 17 17 18 18 19 19 19 20 21 22 23 23
19 16 15 16 17 19 20 21 22 22 22 21 20 19 18 17 17 18 18 18 18 17 17 16 16 16 15 9 4 4 5 12 14 12 13 13 13 14 15 14 14 16 15 11 4 1 3 6 9 10 11 11 12 12 11 11 11 11 11 11 11 12 13 14 15 15 15 15 15 15 14 14 15 15 16 16 17 17 18 18 19 20 21 22 23 23
16 15 16 18 19 20 20 20 20 19 19 19 19 18 18 18 18 19 19 20 20 19 19 18 18 18 17 12 8 5 4 10 12 11 11 11 12 14 14 13 13 15 16 15 10 5 2 2 3 5 7 8 8 9 9 10 10 11 11 12 13 14 15 15 15 15 15 14 14 14 13 14 14 15 15 15 16 16 17 17 18 19 20 21 22 23
15 15 16 17 18 18 18 18 18 18 18 18 18 18 18 19 19 20 20 21 21 21 21 20 19 18 18 16 14 12 12 14 15 14 13 12 12 12 13 13 13 14 15 16 15 12 8 6 7 8 8 8 9 10 11 12 13 13 14 14 14 15 14 14 13 13 13 13 13 13 13 13 14 15 15 16 16 16 17 17 17 18 19 20 22 23
15 15 16 16 17 17 17 17 17 17 17 18 18 19 19 20 20 20 20 21 21 22 22 21 19 17 15 13 13 15 17 18 17 16 15 14 12 12 13 13 13 13 12 12 13 13 11 12 11 10 9 10 11 12 13 14 14 15 14 14 14 14 13 12 12 12 12 12 13 13 13 14 14 15 15 16 16 16 16 16 17 17 18 20 21 22
14 15 15 16 16 17 17 17 17 17 17 18 18 19 19 19 19 19 19 19 20 21 21 21 20 19 17 15 15 16 17 18 17 16 16 16 15 15 14 14 14 13 11 10 10 9 8 10 11 10 9 9 10 11 12 13 13 13 13 13 12 12 11 11 11 11 12 12 13 14 14 14 15 15 15 16 16 16 16 16 17 17 18 19 20 21
14 14 15 15 16 16 17 16 16 17 17 18 18 18 19 19 19 20 20 20 21 21 21 22 22 22 21 20 19 19 20 21 21 20 19 19 18 17 14 14 14 14 12 11 10 9 7 8 10 10 9 7 7 9 10 11 11 11 11 11 11 11 11 11 11 11 12 13 14 14 15 15 15 15 15 16 16 16 16 17 17 18 18 19 19 19
13 14 14 15 15 15 16 16 16 16 16 17 17 18 20 21 22 23 23 23 22 21 21 22 22 23 23 23 23 24 24 24 24 24 23 23 22 20 17 16 15 15 14 13 12 11 9 7 7 8 8 7 6 6 8 9 10 10 11 11 11 11 11 11 12 12 13 14 14 15 15 15 15 15 16 16 16 17 17 18 18 19 18 18 18 19
13 13 14 14 15 15 15 15 16 16 17 18 19 21 22 23 24 24 24 23 21 20 20 21 23 24 24 24 25 25 25 25 25 24 25 25 24 22 20 18 17 17 16 16 15 13 11 6 4 4 3 6 8 8 8 8 9 9 10 11 11 12 12 13 13 13 13 14 14 15 15 15 15 16 16 16 17 18 19 19 20 20 19 19 19 19
13 13 14 14 14 14 15 16 16 17 18 19 20 21 23 23 23 22 21 19 18 18 19 21 22 23 24 25 25 24 23 23 23 23 23 23 24 23 21 20 18 18 18 18 17 15 13 9 6 3 2 4 7 9 9 9 9 9 10 11 12 13 14 14 13 13 14 14 14 15 15 15 16 16 16 16 17 18 19 20 21 21 20 21 21 21
13 13 14 14 14 14 15 16 17 18 18 20 21 22 22 21 18 16 15 16 17 18 19 20 21 22 23 23 22 21 21 21 21 21 21 21 21 22 21 21 20 19 18 18 17 16 15 13 12 11 10 7 7 8 8 9 9 9 10 10 10 12 14 14 14 14 14 14 15 15 16 16 16 16 16 16 17 18 20 21 21 21 21 20 20 21
14 14 14 15 15 15 16 16 17 18 19 21 21 21 18 15 14 15 17 17 18 18 18 18 19 20 20 20 20 19 19 20 20 19 19 19 19 19 20 20 20 20 19 18 17 17 16 15 14 13 13 12 11 10 10 10 10 11 10 10 11 13 15 15 15 15 15 15 15 15 15 15 15 16 16 17 18 19 20 21 21 21 20 18 18 19
14 14 15 16 16 17 18 18 19 20 20 20 19 17 14 14 16 17 18 18 17 17 17 17 17 18 18 18 18 18 18 18 18 18 17 17 17 17 18 19 20 20 19 17 16 16 16 15 14 14 13 12 11 10 11 11 12 11 11 12 13 14 15 15 14 14 14 14 14 13 14 14 15 16 17 18 20 20 20 20 20 19 18 17 17 17
15 15 16 17 18 19 19 20 20 19 19 17 15 14 15 17 18 18 18 17 17 16 16 16 16 17 17 18 18 17 17 17 17 17 16 16 15 15 16 17 18 19 18 17 15 15 15 15 15 14 14 14 12 11 11 11 11 11 12 13 13 12 10 11 12 12 12 12 12 13 13 14 15 17 18 20 20 20 19 18 17 16 15 15 15 16
16 17 17 18 19 19 19 19 18 17 16 16 16 16 17 18 19 19 18 17 16 16 16 17 17 17 16 16 17 17 17 17 17 16 16 15 15 14 14 15 16 17 18 17 15 14 13 13 14 15 15 14 13 13 12 11 11 11 12 13 13 13 12 12 13 13 13 14 14 14 15 16 17 18 19 20 19 18 17 16 15 14 14 13 13 14
17 17 17 17 17 17 17 16 16 16 16 16 17 18 18 19 18 17 16 16 16 16 16 16 16 15 14 15 15 15 16 16 16 16 16 16 15 14 14 14 15 16 17 18 17 16 14 12 12 13 14 14 13 13 12 12 11 11 12 13 14 15 16 16 16 16 16 16 16 16 16 17 17 18 19 19 18 17 15 14 14 13 13 12 12 13
15 15 15 16 16 16 16 16 16 16 17 17 18 18 18 18 18 17 16 15 15 15 16 16 15 13 13 13 14 15 15 16 17 17 17 16 16 16 15 15 15 15 16 17 17 17 17 15 14 13 12 12 12 13 13 12 11 12 13 14 14 14 16 17 17 17 17 17 17 16 16 15 16 16 17 18 17 16 14 13 13 13 12 12 12 12
14 14 15 15 15 15 15 16 16 17 17 17 17 17 17 17 16 16 15 14 14 14 15 15 14 13 13 14 14 14 14 15 16 17 17 17 17 16 16 15 15 15 15 16 17 17 18 18 17 15 13 11 10 10 12 12 12 12 13 13 13 13 14 15 16 16 15 15 15 14 13 13 14 15 15 16 16 16 14 13 12 12 12 12 12 12
13 14 14 15 15 15 15 16 17 17 17 16 16 16 15 15 15 14 14 14 13 13 14 14 14 13 14 14 14 14 14 14 15 16 17 17 16 16 15 15 15 15 15 15 16 17 17 18 19 18 17 13 11 10 11 12 13 13 13 13 12 12 13 14 15 15 14 14 13 12 12 12 13 14 14 14 15 15 15 14 12 11 11 11 11 11
13 14 14 14 15 15 16 16 17 16 16 15 14 14 14 14 14 14 14 14 14 13 13 13 13 13 13 14 14 14 14 14 15 15 16 16 15 15 14 14 14 14 14 14 15 16 17 17 18 19 19 17 15 13 13 13 13 13 13 13 13 13 13 14 14 13 13 13 12 12 11 11 11 12 13 12 12 13 15 14 13 11 10 11 11 11
14 14 15 15 15 15 16 16 16 15 14 13 13 13 14 14 14 14 14 14 13 13 13 13 13 13 13 13 14 14 14 14 14 14 14 15 15 14 14 13 13 12 12 12 12 13 13 13 15 17 18 19 18 17 15 14 14 13 13 13 13 13 13 14 13 13 12 12 12 11 11 10 10 11 11 10 11 12 14 15 14 12 10 9 9 9
14 15 15 15 15 15 15 15 15 14 13 13 13 14 14 14 14 14 14 14 13 13 13 14 13 13 13 13 14 14 14 14 13 13 14 15 15 14 14 13 12 11 9 7 6 6 5 5 6 10 14 17 18 18 18 16 14 12 11 12 13 13 13 13 13 13 12 11 11 11 10 10 10 10 10 10 9 9 11 13 13 12 9 9 8 8
Wind_Direction
286 288 290 290 290 290 289 289 289 290 291 291 291 291 291 291 290 290 290 290 289 289 289 288 288 288 288 287 287 287 286 285 284 284 284 283 283 283 282 282 281 281 281 280 280 280 279 279 278 278 277 277 276 276 276 276 275 274 274 274 275 276 277 278 278 277 276 275 274 273 272 271 271 271 272 272 272 273 273 273 273 273 273 273 273 275
288 288 288 289 288 287 287 288 288 288 289 290 290 290 291 291 291 290 290 290 289 289 289 288 288 288 288 288 288 288 287 286 285 285 285 284 284 284 284 283 283 283 282 282 281 281 280 280 280 279 278 277 277 276 275 275 274 274 274 274 274 274 276 277 278 278 276 275 274 273 273 272 272 272 272 272 272 272 272 272 272 273 273 273 274 274
289 289 288 288 287 286 286 287 288 288 288 288 288 289 289 289 289 289 289 289 289 288 288 287 287 287 287 287 287 286 285 285 285 284 285 285 285 285 285 285 284 284 283 283 283 282 282 282 281 281 280 279 278 277 276 275 275 275 274 274 274 274 274 276 276 276 275 275 274 273 272 271 271 270 270 270 270 270 270 271 271 271 271 271 271 272
285 286 286 288 287 285 284 286 287 287 287 287 287 288 288 288 287 287 288 288 288 288 287 287 286 286 285 285 285 285 285 284 284 284 284 284 285 285 285 285 285 284 284 284 284 283 283 283 283 283 282 281 280 279 278 277 277 276 276 275 275 275 275 275 275 274 274 273 272 272 271 270 269 268 268 267 266 267 268 268 268 268 268 268 268 269
280 282 285 287 286 285 285 285 286 287 287 286 286 287 287 286 285 286 287 287 287 287 287 287 287 286 285 285 285 286 285 285 284 284 284 284 284 284 284 284 284 284 284 284 283 283 284 284 284 284 284 283 282 282 281 280 280 279 279 278 278 277 276 275 274 273 272 272 271 271 271 270 268 267 266 265 265 265 265 266 266 266 266 265 265 267
279 280 283 284 283 284 285 286 285 285 286 286 285 285 285 284 284 285 285 286 287 287 287 287 287 286 285 285 285 285 285 285 285 284 283 283 283 283 283 283 283 283 283 283 283 283 283 283 284 284 284 284 283 283 282 282 282 281 281 281 280 279 278 277 277 276 274 274 273 273 273 272 271 270 269 268 267 267 267 267 267 267 267 266 266 267
279 280 281 281 281 282 283 283 283 283 283 284 285 285 285 285 284 284 283 284 285 286 286 287 287 286 285 284 284 284 284 284 284 283 282 282 282 282 282 282 282 282 282 282 282 282 282 282 283 283 283 283 283 283 282 282 281 281 281 280 279 279 279 278 278 279 278 277 276 276 276 275 275 274 273 272 271 270 270 270 271 271 271 271 270 270
278 279 279 279 281 281 281 281 281 281 281 281 283 284 284 285 285 284 283 283 283 284 285 286 287 286 285 284 284 284 284 284 283 283 283 282 282 282 282 282 281 281 281 281 280 280 281 281 281 282 282 283 283 283 282 281 281 280 279 279 278 277 277 277 277 277 277 276 275 275 276 276 276 275 275 274 273 273 272 272 273 273 273 273 273 272
274 277 278 277 277 279 280 280 279 279 278 277 277 279 281 283 284 284 284 283 282 282 283 284 285 285 285 285 284 284 283 283 282 282 282 282 283 283 283 283 283 282 281 281 280 280 280 281 281 281 282 282 282 282 281 281 280 279 279 278 278 277 277 276 275 275 274 274 274 274 274 275 275 275 274 274 273 272 272 271 272 272 272 273 273 273
269 272 275 274 273 274 276 277 278 278 277 275 273 273 274 276 280 282 283 282 282 282 281 281 281 283 284 285 285 284 283 282 281 280 279 279 279 280 281 282 282 281 281 281 280 280 280 280 280 281 281 281 281 281 281 281 280 279 279 278 278 278 278 277 277 276 276 275 275 275 275 274 274 274 274 273 272 271 271 270 271 271 271 272 273 273
270 270 271 272 272 271 271 273 275 277 276 274 271 270 269 270 273 276 277 279 281 282 281 280 279 279 281 283 285 285 284 283 282 280 279 277 277 278 278 279 279 279 279 279 279 279 279 279 279 279 280 280 280 280 280 280 280 279 279 279 279 279 280 280 280 280 279 279 279 278 276 274 273 273 273 273 272 272 271 272 272 272 272 273 273 274
270 270 269 269 269 269 269 271 273 275 275 271 270 270 270 270 270 269 269 273 277 281 282 282 280 278 278 280 283 285 285 283 282 281 280 279 278 278 278 278 279 279 279 279 278 278 277 277 277 278 278 278 278 278 278 278 279 279 279 279 279 279 280 280 280 280 280 280 279 278 277 274 273 273 273 273 273 273 273 273 273 273 274 274 274 274
267 267 267 267 267 267 267 269 271 271 270 267 266 268 271 272 271 269 267 268 272 276 280 281 281 280 279 278 279 281 282 282 281 280 279 278 277 277 277 277 278 278 279 278 278 277 277 277 277 277 276 276 276 276 276 276 277 277 277 278 278 278 278 278 279 279 279 279 278 277 276 274 273 273 274 274 275 274 274 274 274 274 274 274 274 273
264 264 264 263 263 263 263 263 265 266 266 265 266 268 270 272 272 270 268 268 271 274 277 278 279 279 280 279 277 277 277 278 278 278 277 276 275 274 274 274 275 275 276 275 275 275 276 276 276 276 276 276 276 276 276 276 277 277 277 278 278 278 277 278 278 278 278 278 278 277 276 275 275 274 275 275 275 275 275 275 275 275 274 274 273 273
261 261 260 259 259 260 260 262 264 265 267 268 269 269 270 270 268 267 266 268 272 275 277 277 277 278 280 278 276 274 272 271 272 273 274 274 273 273 271 271 271 272 272 271 271 272 273 273 273 274 275 275 276 276 277 277 278 278 279 279 278 278 278 277 277 277 277 277 277 277 276 276 275 275 275 274 274 274 274 274 274 274 274 273 273 273
265 263 259 259 260 262 265 268 269 269 270 271 271 270 268 266 265 265 265 268 273 277 278 278 279 280 281 281 278 274 268 266 265 266 269 271 272 272 270 267 267 269 269 269 269 270 272 271 271 272 273 274 276 277 277 278 278 278 278 278 278 277 277 276 276 276 276 276 277 276 276 276 275 275 274 274 273 273 273 274 274 274 274 273 273 273
272 269 267 267 268 270 273 274 273 272 272 272 271 268 265 263 263 265 266 270 274 277 277 276 276 280 284 286 284 278 269 263 261 262 265 269 271 272 269 265 264 265 267 267 267 268 270 270 270 270 271 273 274 276 276 277 277 277 277 277 277 276 276 275 276 276 276 276 276 276 276 275 275 274 274 273 273 273 274 274 274 274 274 274 274 274
273 271 271 271 273 275 277 276 275 273 272 269 268 267 264 262 262 264 266 269 271 272 273 273 272 272 280 285 285 283 276 268 264 264 266 268 271 272 270 266 263 263 265 266 267 267 268 268 269 270 271 272 273 274 274 275 276 276 276 276 276 276 276 276 276 276 276 276 276 276 275 275 274 274 274 273 273 273 274 274 275 275 276 276 275 275
275 274 274 274 276 278 279 277 275 272 270 267 266 265 264 265 267 268 269 269 269 268 268 269 269 270 272 276 280 282 279 273 267 266 267 269 270 272 271 266 263 262 263 264 266 267 267 267 268 269 270 270 271 272 273 273 274 274 275 275 276 276 276 277 277 277 277 277 277 276 276 275 275 275 274 274 274 274 274 275 276 277 277 277 277 277
284 283 281 281 282 282 280 277 275 273 270 269 269 270 271 272 274 273 272 271 269 267 266 265 266 268 271 274 278 280 279 274 268 265 265 267 269 271 270 266 262 261 262 263 265 265 265 266 267 268 269 270 270 270 271 272 273 273 274 274 275 276 277 278 278 278 278 278 278 277 276 276 275 274 274 273 274 274 275 276 277 278 279 279 279 278
288 286 283 283 282 279 277 276 275 274 273 274 275 275 273 273 271 269 268 268 268 268 267 266 266 269 272 274 277 279 279 274 267 262 264 266 267 268 268 265 261 259 260 263 265 265 264 265 266 267 268 269 270 270 270 270 272 273 274 274 275 276 277 278 279 279 279 279 278 277 276 275 274 274 273 273 274 275 276 277 278 279 280 281 280 280
280 279 279 278 276 274 274 276 278 278 277 275 272 270 268 267 265 265 266 267 267 268 268 269 271 273 275 276 277 278 278 271 263 259 263 266 267 268 268 265 261 259 259 262 264 265 265 264 265 267 268 269 270 270 270 270 271 272 273 275 275 276 277 278 279 279 279 279 278 277 276 275 274 273 273 273 274 275 276 278 279 280 281 281 281 281
273 274 276 276 275 273 275 278 280 281 278 273 268 265 264 262 262 263 266 267 268 270 272 274 276 277 278 277 278 278 275 270 262 257 258 260 267 269 271 268 264 260 260 262 265 266 266 265 266 267 269 270 270 270 270 270 271 272 273 274 275 276 277 278 279 279 280 280 279 277 275 274 274 273 273 273 274 275 276 277 279 280 281 282 282 283
274 273 273 274 274 275 277 279 280 279 276 272 267 264 263 263 263 264 267 270 271 273 277 278 280 280 280 281 280 277 272 267 260 254 252 256 265 270 272 271 268 265 265 266 267 267 267 266 267 268 270 270 270 270 270 271 271 272 273 274 276 277 278 279 279 280 280 280 279 277 276 274 274 273 273 273 274 274 276 277 279 280 282 284 285 285
279 278 277 276 276 276 276 276 275 274 273 272 271 272 273 275 276 278 279 280 280 281 283 284 284 283 284 284 280 274 270 265 257 249 246 256 266 270 272 271 269 268 269 270 270 269 267 266 267 268 269 270 271 271 272 272 273 274 274 275 275 276 278 279 280 281 281 281 279 277 276 275 274 274 274 274 274 275 276 278 279 281 283 285 286 287
284 284 283 281 280 278 276 275 274 275 278 282 285 289 293 295 296 295 292 289 287 287 288 286 283 281 281 280 275 271 269 264 253 244 241 250 262 268 271 271 269 267 268 270 270 268 266 265 266 267 268 270 271 273 274 275 276 276 275 276 276 277 278 279 280 281 282 281 280 278 277 276 275 274 274 275 275 276 277 279 281 283 285 286 287 287
289 289 289 287 284 281 279 277 279 284 289 292 295 297 299 300 299 296 290 287 286 285 283 279 275 275 276 274 271 269 269 264 254 246 242 246 255 265 269 270 268 265 265 268 269 267 265 263 264 265 266 269 271 274 276 277 278 277 276 275 276 276 278 279 280 281 282 282 281 280 278 277 276 275 276 277 278 279 280 282 283 285 287 288 288 288
293 294 294 293 289 285 282 282 285 289 291 292 292 293 294 295 294 289 284 284 284 282 277 272 271 276 279 280 279 279 278 274 267 260 254 249 252 262 266 268 266 263 263 267 269 267 263 260 261 262 265 268 271 274 277 278 278 277 276 275 275 275 276 277 278 280 281 282 282 281 280 279 277 277 278 279 281 282 284 285 286 288 289 290 289 289
295 296 298 298 296 294 292 291 290 288 288 288 290 291 291 289 285 281 280 283 286 285 282 282 283 286 289 289 288 286 283 278 274 269 261 253 252 259 263 264 261 259 261 266 271 269 263 259 258 260 262 266 269 273 275 277 277 276 276 275 274 274 274 275 277 279 281 282 283 283 282 281 280 281 282 283 283 285 286 287 289 290 291 291 290 290
294 296 300 302 302 301 299 295 291 289 289 290 291 291 289 285 280 278 279 283 284 283 282 282 282 283 285 287 287 284 279 276 273 266 255 247 248 256 259 259 257 255 255 262 270 272 263 261 259 258 260 262 265 268 271 273 274 275 274 273 272 272 274 278 281 284 285 285 286 285 285 284 284 284 285 285 285 286 287 288 290 291 292 292 292 291
287 292 298 302 303 302 300 296 294 293 293 295 295 294 291 286 281 279 279 278 276 274 274 275 275 276 276 276 273 268 272 279 277 267 250 240 243 253 256 256 255 253 250 248 249 328 271 266 261 255 252 254 256 259 263 267 269 270 271 272 273 276 280 285 289 291 291 291 290 289 288 288 287 286 285 285 285 287 288 289 290 291 292 293 293 292
286 295 301 304 304 303 300 298 296 297 299 300 301 300 297 292 287 283 280 276 272 269 269 269 270 269 268 266 265 267 277 287 290 282 263 247 248 254 255 255 256 255 250 244 241 244 264 276 271 260 246 247 250 255 260 265 268 270 272 275 278 281 286 290 293 294 295 295 295 294 293 292 291 291 289 288 288 289 289 290 290 291 292 293 292 290
296 304 307 307 305 301 298 296 297 298 300 302 303 303 301 297 292 288 283 279 276 272 269 268 267 267 266 267 269 275 283 289 293 291 279 265 258 260 260 257 256 256 253 246 242 243 250 259 270 271 265 259 259 262 265 268 270 272 275 277 280 283 288 291 294 295 296 298 299 299 298 297 297 297 296 296 296 296 295 294 293 293 293 293 291 290
305 308 308 305 301 297 295 295 297 299 300 301 301 300 299 295 291 288 286 285 284 281 277 273 272 273 276 279 281 283 285 287 289 289 284 273 265 264 265 260 256 254 252 247 242 243 249 254 260 266 268 266 263 262 264 267 271 273 275 276 278 282 286 289 291 293 296 297 298 299 299 299 300 301 301 302 303 303 303 300 298 296 295 294 294 295
306 306 304 301 298 296 296 298 300 302 302 301 300 299 296 292 289 288 288 290 291 290 289 285 284 286 289 291 289 286 284 284 285 285 282 275 269 266 265 260 254 251 248 245 241 241 247 251 252 254 260 264 264 262 262 265 269 272 274 274 275 278 282 286 289 291 293 294 295 296 297 299 300 302 304 306 307 308 306 303 300 299 298 297 298 299
303 301 299 296 295 295 297 300 303 304 303 301 299 296 294 292 290 289 289 289 290 291 292 292 291 289 287 284 281 280 280 282 283 283 280 276 271 266 263 260 255 249 244 242 241 241 245 251 252 251 252 257 263 264 263 263 264 266 267 270 272 276 280 283 286 288 290 291 292 294 296 298 300 302 304 307 309 308 306 303 302 302 301 301 300 300
296 293 291 291 292 294 297 301 303 302 300 298 296 294 293 293 292 290 289 287 286 288 291 293 293 290 286 282 279 278 279 282 284 284 283 279 273 267 261 260 257 251 242 239 240 243 245 252 256 255 252 250 251 258 263 262 260 259 262 267 271 275 279 281 283 285 287 288 290 292 294 297 299 301 304 307 309 309 308 308 308 308 308 306 304 302
286 284 285 288 292 295 297 299 299 298 297 295 294 295 296 296 295 293 291 288 288 290 293 294 293 292 289 286 283 281 281 283 286 287 287 284 277 269 262 260 258 253 246 241 240 242 244 248 254 255 253 251 252 255 258 259 258 258 263 268 272 274 276 279 282 284 285 286 288 290 292 295 298 300 303 306 308 310 311 314 316 316 315 313 311 309
277 278 282 287 291 294 296 296 295 295 295 296 297 298 299 298 297 296 295 295 297 298 298 296 295 293 292 290 287 285 284 285 287 288 289 286 281 273 265 260 256 254 250 246 243 241 242 244 246 247 250 258 259 258 258 257 256 259 265 271 272 273 275 278 281 282 283 284 286 288 289 292 295 298 300 303 306 309 311 314 316 317 317 317 316 316
275 277 283 288 292 294 294 293 293 295 297 300 301 301 299 298 299 302 307 308 307 304 302 300 298 296 295 294 292 290 289 289 289 290 290 288 284 278 269 261 256 253 251 247 244 241 240 242 247 251 255 259 264 265 264 260 259 262 267 270 270 272 276 279 280 280 281 282 283 285 287 290 293 295 297 301 305 307 309 311 313 315 317 316 315 315
276 280 284 289 292 293 292 292 294 298 301 303 302 300 298 302 310 315 314 312 309 306 304 303 302 299 298 295 293 292 291 291 292 292 291 290 287 282 274 265 259 254 251 247 244 241 239 241 245 249 253 256 260 264 264 262 262 263 264 264 268 274 278 279 278 279 279 280 281 282 285 288 290 293 296 300 303 306 308 309 311 313 316 317 315 313
278 280 283 287 289 291 293 296 299 301 303 302 298 296 301 311 316 315 312 310 308 307 306 306 304 302 300 297 295 293 292 292 293 294 293 293 290 285 277 269 262 256 252 248 245 243 241 241 243 246 250 253 256 260 262 262 262 260 259 261 267 274 278 278 277 277 277 277 278 279 282 285 288 292 296 299 301 303 306 308 311 313 314 315 315 315
278 279 281 285 290 294 297 299 300 300 299 296 295 298 305 310 311 310 308 305 304 304 306 306 305 302 300 298 296 295 295 296 296 296 295 294 291 286 279 272 267 260 254 248 245 245 244 243 243 245 248 250 253 256 260 263 263 260 259 261 265 270 275 276 277 276 275 274 275 276 279 283 287 291 294 296 298 301 305 309 313 314 314 314 313 315
277 280 284 288 293 297 298 296 294 294 294 295 297 300 303 306 307 306 302 300 300 301 304 305 304 301 298 296 296 297 298 300 300 299 298 295 292 288 282 276 271 265 258 250 246 246 247 246 246 246 248 249 250 252 256 260 261 260 259 261 261 260 261 270 275 276 275 274 275 277 280 283 288 291 293 294 296 300 306 312 316 317 316 314 312 315
279 283 287 292 294 294 291 288 287 289 293 294 296 298 299 303 304 302 297 295 297 300 303 305 305 302 299 298 300 302 303 304 303 301 300 297 293 289 284 278 272 266 261 254 250 248 248 247 249 250 251 249 247 247 250 254 257 258 260 260 260 259 260 267 271 273 274 275 277 280 283 286 289 291 292 293 296 301 309 314 318 319 317 314 313 316
283 287 289 291 291 289 285 284 286 290 293 294 294 295 297 300 299 295 293 293 296 300 304 306 304 301 299 301 303 305 306 305 305 303 300 297 294 291 287 281 275 268 262 258 256 254 251 250 251 252 252 249 246 245 246 248 251 255 258 260 261 262 265 268 269 271 272 275 278 282 286 288 289 288 287 290 296 303 311 316 318 318 317 315 315 318
286 288 289 289 288 287 286 289 291 292 292 292 291 292 294 296 296 295 295 296 298 302 305 305 303 299 296 298 300 302 303 303 303 302 299 296 293 290 286 283 279 274 267 263 260 259 257 255 253 251 249 246 246 247 247 247 247 250 255 259 261 262 264 266 269 272 275 277 280 283 287 287 284 282 284 289 295 302 308 313 316 317 316 315 315 319
288 288 288 288 288 289 291 292 292 291 289 288 288 290 294 297 299 299 299 301 302 302 303 303 301 297 295 296 297 299 301 302 303 301 298 295 291 288 284 282 280 277 272 268 264 261 260 259 256 253 249 245 246 251 253 250 248 249 253 257 259 261 264 267 271 274 278 280 281 283 284 281 279 279 282 286 292 297 304 309 312 313 312 312 314 319
288 288 288 288 290 291 291 292 290 287 285 284 287 292 297 300 301 302 301 301 301 299 297 296 295 295 295 296 297 299 301 302 302 301 298 294 290 286 283 280 277 274 270 266 262 260 259 258 257 255 252 247 246 250 255 254 253 252 253 255 256 259 262 267 271 274 276 278 281 282 281 279 279 281 282 282 286 293 299 304 307 308 307 308 311 318
288 287 287 287 287 288 288 288 286 284 284 285 289 293 296 298 300 300 300 300 298 296 293 292 291 291 292 294 296 298 298 299 299 299 297 295 291 285 279 274 269 264 260 258 255 254 254 255 256 255 254 250 247 246 248 252 254 254 252 252 253 256 259 263 267 270 272 275 278 279 279 280 281 282 280 277 279 286 293 298 301 303 305 307 310 320
288 286 285 284 283 283 284 285 286 286 287 289 292 295 297 298 300 301 301 300 299 296 294 293 291 290 291 292 294 295 296 295 296 297 298 299 296 288 279 270 260 250 243 242 243 243 244 249 255 257 256 252 248 243 241 243 247 249 250 250 251 252 255 258 262 266 269 272 274 276 278 279 280 280 277 271 271 278 286 291 295 300 305 308 312 322